Home > Weather > Flint > Past weeks

Flag for USA Past Weather in Flint, Michigan, USA — Yesterday and Last 2 Weeks

Now
71 °F

Clear.


Feels Like: 74 °F
Forecast: 68 / 82 °F
Wind: 6 mph from North

Location: Bishop International Airport

Current Time: Jul 29, 2016 at 3:51:07 AM

Latest Report: Jul 29, 2016 at 2:53 AM


Visibility: 10 mi

Pressure: 29.94 "Hg

Humidity: 71%

Dew Point: 61 °F

Location of FlintLocation

Past Weather in Flint — Graph

°F

Flint Temperature Yesterday

Maximum temperature yesterday: 88 °F (at 5:53 PM)
Minimum temperature yesterday: 63 °F (at 5:53 AM)
Average temperature yesterday: 77 °F

High & Low Weather Summary for the Past Weeks

 TemperatureHumidityPressure
High97 °F (Jul 22, 2:53 PM)93% (Jul 28, 5:53 AM)30.26 "Hg (Jul 28, 5:53 AM)
Low55 °F (Jul 17, 4:53 AM)23% (Jul 23, 2:53 PM)29.75 "Hg (Jul 14, 3:53 AM)
Average78 °F59%30.00 "Hg
* Reported Jul 14 1:53 AM — Jul 29 1:53 AM, Flint, Weather by CustomWeather, © 2016

Note: Actual official high and low records may vary slightly from our data, if they occured in-between our weather recording intervals... More about our weather records

Advertising

Flint Weather History for the Previous 24 Hours

Scroll right to see more
 ConditionsComfort  
Time TempWeatherWind HumidityBarometerVisibility
1:53 AM
Fri, Jul 29
72 °FPassing clouds.No wind68%29.95 "Hg10 mi
12:53 AM73 °FClear.8 mph64%29.94 "Hg10 mi
11:53 PM
Thu, Jul 28
74 °FPassing clouds.9 mph62%29.94 "Hg10 mi
10:53 PM76 °FClear.8 mph60%29.93 "Hg10 mi
9:53 PM78 °FSunny.13 mph56%29.91 "Hg10 mi
8:53 PM80 °FSunny.10 mph54%29.91 "Hg10 mi
7:53 PM83 °FOvercast.8 mph51%29.91 "Hg10 mi
6:53 PM85 °FPassing clouds.10 mph45%29.89 "Hg10 mi
5:53 PM88 °FPassing clouds.12 mph42%29.88 "Hg10 mi
4:53 PM86 °FPartly sunny.9 mph45%29.88 "Hg10 mi
3:53 PM86 °FPartly sunny.7 mph45%29.89 "Hg10 mi
2:53 PM87 °FPassing clouds.No wind45%29.90 "Hg10 mi
1:53 PM86 °FSunny.8 mph45%29.91 "Hg10 mi
12:53 PM85 °FSunny.7 mph46%29.91 "Hg10 mi
11:53 AM83 °FSunny.8 mph50%29.93 "Hg10 mi
10:53 AM81 °FSunny.10 mph51%29.93 "Hg10 mi
9:53 AM78 °FScattered clouds.10 mph60%29.95 "Hg10 mi
8:53 AM76 °FSunny.9 mph64%29.95 "Hg10 mi
7:53 AM71 °FSunny.6 mph76%29.95 "Hg10 mi
6:53 AM69 °FClear.3 mph81%29.93 "Hg10 mi
5:53 AM63 °FClear.No wind93%29.91 "Hg10 mi
4:53 AM65 °FClear.No wind87%29.90 "Hg10 mi
3:53 AM66 °FClear.No wind87%29.92 "Hg10 mi
Weather by CustomWeather, © 2016

See weather overviewHow to use our weather pages